Flag for Germany Weather past 2 weeks in Osnabrück, Lower Saxony, Germany

Now
99 °F

Sunny.


Feels Like: 100 °F
Forecast: 67 / 84 °F
Wind: 13 mph from West

Location: Muenster / Osnabrueck

Current Time: Jul 4, 2015 at 4:13:16 PM

Latest Report: Jul 4, 2015 at 3:50 PM


Visibility: 10 mi

Pressure: 30.04 "Hg

Humidity: 31%

Dew point: 63 °F

Location of OsnabrückLocation

Historic Weather in Osnabrück — Graph

°F

Osnabrück temperature yesterday

Maximum temperature yesterday: 88 °F (at 4:20 PM)
Minimum temperature yesterday: 68 °F (at 3:50 AM)
Average temperature yesterday: 78 °F

Past Weeks' High & Low Weather Summary

 TemperatureHumidityPressure
High99 °F (Jul 2, 3:20 PM)100% (Jun 20, 5:20 AM)30.27 "Hg (Jun 20, 5:20 AM)
Low46 °F (Jun 23, 3:50 AM)25% (Jul 1, 2:20 PM)29.65 "Hg (Jun 22, 8:50 PM)
Average65 °F71%30.06 "Hg
* Reported Jun 19 2:20 PM — Jul 4 2:50 PM, Osnabrück, Weather by CustomWeather, © 2015

Note: Actual official high and low records may vary slightly from our data, if they occured in-between our weather recording intervals... More about our weather records

Advertising

Osnabrück weather history for previous 24 hours

 ConditionsComfort  
Time TempWeatherWind HumidityBarometerVisibility
2:50 PM
Sat, Jul 4
99 °FSunny.9 mph31%30.04 "Hg10 mi
2:20 PM95 °FSunny.9 mph36%30.04 "Hg10 mi
1:50 PM95 °FSunny.9 mph36%30.04 "Hg10 mi
1:20 PM95 °FSunny.10 mph36%30.04 "Hg10 mi
12:50 PM95 °FSunny.7 mph36%30.04 "Hg10 mi
12:20 PM93 °FPassing clouds.5 mph41%30.04 "HgN/A
11:50 AM93 °FPassing clouds.5 mph44%30.04 "HgN/A
11:20 AM91 °FPartly sunny.7 mph46%30.04 "HgN/A
10:50 AM88 °FSunny.6 mph52%30.04 "Hg10 mi
10:20 AM86 °FSunny.6 mph59%30.07 "Hg10 mi
9:50 AM84 °FSunny.6 mph62%30.07 "Hg10 mi
9:20 AM81 °FSunny.6 mph70%30.07 "Hg10 mi
8:50 AM79 °FSunny.6 mph70%30.07 "Hg10 mi
8:20 AM77 °FSunny.5 mph74%30.07 "Hg10 mi
7:50 AM75 °FSunny.3 mph78%30.07 "Hg10 mi
7:20 AM73 °FSunny.3 mph83%30.07 "Hg10 mi
6:50 AM68 °FFog.1 mph100%30.09 "HgN/A
6:20 AM66 °FMild.2 mph100%30.09 "Hg6 mi
5:50 AM66 °FMild.1 mph100%30.09 "Hg5 mi
5:20 AM66 °FMild.1 mph100%30.09 "Hg6 mi
4:50 AM66 °FMild.1 mph100%30.09 "HgN/A
4:20 AM68 °FFog.1 mph94%30.12 "HgN/A
3:50 AM70 °FClear.2 mph88%30.12 "Hg10 mi
3:20 AM70 °FClear.5 mph94%30.12 "Hg10 mi
2:50 AM70 °FClear.5 mph88%30.15 "Hg10 mi
2:20 AM70 °FClear.5 mph94%30.15 "Hg10 mi
1:50 AM70 °FClear.3 mph94%30.18 "Hg10 mi
1:20 AM70 °FClear.3 mph94%30.18 "Hg10 mi
12:50 AM72 °FClear.2 mph88%30.18 "Hg10 mi
12:20 AM73 °FClear.5 mph83%30.18 "Hg10 mi
11:50 PM
Fri, Jul 3
73 °FClear.5 mph83%30.18 "Hg10 mi
11:20 PM75 °FClear.6 mph78%30.18 "Hg10 mi
10:50 PM75 °FSunny.6 mph78%30.21 "Hg10 mi
10:20 PM77 °FSunny.6 mph74%30.21 "Hg10 mi
9:50 PM79 °FSunny.6 mph70%30.21 "Hg10 mi
9:20 PM81 °FSunny.3 mph66%30.21 "Hg10 mi
8:50 PM82 °FSunny.3 mph62%30.18 "Hg10 mi
8:20 PM84 °FSunny.6 mph58%30.18 "Hg10 mi
7:50 PM84 °FSunny.8 mph55%30.18 "Hg10 mi
7:20 PM86 °FSunny.9 mph52%30.18 "Hg10 mi
6:50 PM86 °FSunny.9 mph52%30.18 "Hg10 mi
6:20 PM86 °FSunny.9 mph49%30.18 "Hg10 mi
5:50 PM88 °FSunny.7 mph49%30.21 "Hg10 mi
5:20 PM88 °FSunny.8 mph49%30.21 "Hg10 mi
4:50 PM86 °FSunny.7 mph49%30.21 "Hg10 mi
4:20 PM88 °FSunny.6 mph49%30.21 "Hg10 mi
Weather by CustomWeather, © 2015

See weather overviewHow to use our weather pages